Weather History for MZBZ - January, 2014

Change the Weather History Date:

Sunday, January 19, 2014

  Actual Average Record
Temperature  
Mean Temperature 73 °F -  
Max Temperature 80 °F - - ()
Min Temperature 66 °F - - ()
Cooling Degree Days 8    
Growing Degree Days 23 (Base 50)    
Moisture  
Dew Point 67 °F    
Average Humidity 82    
Maximum Humidity 100    
Minimum Humidity 61    
Precipitation  
Precipitation 0.03 in 0.13 in - ()
Sea Level Pressure  
Sea Level Pressure 30.14 in    
Wind  
Wind Speed 5 mph ()    
Max Wind Speed 12 mph    
Max Gust Speed -    
Visibility 8.5 miles    
Events Rain    
T = Trace of Precipitation, MM = Missing Value Source: Averaged Metar Reports

Daily Weather History Graph

Daily Weather History Graph

Search for Another Location

Airport or City:

Trip Planner

Search our weather history database for the weather conditions in past years. The results will help you decide how hot, cold, wet, or windy it might be!

Date:

Astronomy

Jan. 19, 2014 Rise Set
Actual Time 6:27 AM CST 5:41 PM CST
Civil Twilight 6:03 AM CST 6:04 PM CST
Nautical Twilight 5:37 AM CST 6:30 PM CST
Astronomical Twilight 5:11 AM CST 6:57 PM CST
Moon 8:41 PM CST (1/19) 8:30 AM CST (1/19)
Length of Visible Light 12h 00m
Length of Day
11h 14m
Waning Gibbous, 89% of the Moon is Illuminated
Jan 19
Waning Gibbous
Jan 23
Last Quarter
Jan 30
New
Feb 6
First Quarter
Feb 14
Full

Hourly Weather History & Observations

Time (CST) Temp. Heat Index Dew Point Humidity Pressure Visibility Wind Dir Wind Speed Gust Speed Precip Events Conditions
12:00 AM 67 °F - 66 °F 95% 30.14 in 12 mi NW 3.5 mph - - Rain Light Rain
3:00 AM 67 °F - 66 °F 94% 30.12 in 12 mi NW 6.9 mph - - Rain Light Rain
5:00 AM 66.2 °F - 64.4 °F 94% 30.12 in 6.2 mi NW 4.6 mph - N/A Rain Light Rain
6:00 AM 66 °F - 65 °F 97% 30.14 in 12 mi WNW 3.5 mph - - Rain Light Rain
6:00 AM 66.2 °F - 66.2 °F 100% 30.12 in 6.2 mi WNW 3.5 mph - N/A   Mostly Cloudy
7:00 AM 66.2 °F - 66.2 °F 100% 30.15 in 6.2 mi Calm Calm - N/A   Mostly Cloudy
8:00 AM 68.0 °F - 66.2 °F 94% 30.18 in 6.2 mi West 3.5 mph - N/A   Mostly Cloudy
9:00 AM 69 °F - 67 °F 91% 30.23 in 12 mi West 3.5 mph - -   Partly Cloudy
9:00 AM 68.0 °F - 66.2 °F 94% 30.22 in 6.2 mi West 3.5 mph - N/A   Mostly Cloudy
10:00 AM 71.6 °F - 68.0 °F 88% 30.22 in 6.2 mi NW 6.9 mph - N/A   Mostly Cloudy
11:00 AM 75.2 °F - 68.0 °F 78% 30.20 in 6.2 mi NNW 6.9 mph - N/A   Mostly Cloudy
12:00 PM 78 °F - 68 °F 63% 30.18 in 14 mi NNE 6.9 mph - -   Mostly Cloudy
12:00 PM 78.8 °F - 68.0 °F 69% 30.17 in 6.2 mi NNE 6.9 mph - N/A   Mostly Cloudy
1:00 PM 80.6 °F 82.7 °F 66.2 °F 61% 30.15 in 6.2 mi NE 9.2 mph - N/A   Mostly Cloudy
2:00 PM 77.0 °F - 64.4 °F 65% 30.10 in 6.2 mi NNW 9.2 mph - N/A   Mostly Cloudy
3:00 PM 79 °F - 68 °F 62% 30.12 in 14 mi ENE 8.1 mph - -   Partly Cloudy
3:00 PM 78.8 °F - 68.0 °F 69% 30.11 in 6.2 mi ENE 8.1 mph - N/A   Partly Cloudy
4:00 PM 78.8 °F - 68.0 °F 69% 30.11 in 6.2 mi NE 8.1 mph - N/A   Partly Cloudy
5:00 PM 75.2 °F - 68.0 °F 78% 30.12 in 6.2 mi NE 11.5 mph - N/A   Scattered Clouds
6:00 PM 73 °F - 69 °F 83% 30.14 in 12 mi ENE 9.2 mph - - Rain Light Rain Showers
6:00 PM 73.4 °F - 69.8 °F 88% 30.13 in 6.2 mi ENE 9.2 mph - N/A Rain Light Rain Showers
9:00 PM 73 °F - 67 °F 78% 29.91 in 12 mi ENE 11.5 mph - - Rain Light Rain Showers